Wind_Speed
19 20 22 23 23 22 23 24 24 24 21 20 21 20 20 20 18 18 18 18 17 18 19 19 19 20 20 20 19 19 19 19 19 19 20 20 21 21 21 21 21 21 22 22
21 22 23 23 23 24 25 25 24 24 22 20 21 21 20 20 20 20 20 21 20 20 20 20 21 20 20 21 21 21 20 20 21 21 21 22 22 23 23 23 23 23 23 23
24 23 23 23 23 24 24 25 24 24 23 23 22 22 20 21 22 22 22 22 22 22 22 22 21 22 23 22 22 23 23 22 22 22 23 24 24 24 24 24 24 24 23 23
26 24 24 24 23 23 23 24 25 25 25 24 24 24 24 24 24 24 23 23 23 22 23 23 24 24 24 24 25 26 25 24 24 25 25 26 26 26 25 25 25 24 23 23
28 27 25 25 24 24 25 26 26 27 27 27 27 27 26 26 26 25 26 25 25 24 24 25 26 27 27 27 27 27 26 26 26 26 27 27 26 26 26 26 25 25 24 24
28 28 27 26 26 27 28 28 27 27 28 29 29 31 29 29 29 27 27 27 27 27 27 28 28 28 28 28 27 27 27 27 28 28 28 28 27 27 27 27 26 26 25 24
29 30 30 28 27 28 29 29 27 28 29 30 31 31 30 29 29 28 28 28 29 29 30 30 30 30 29 28 28 28 28 28 28 28 28 29 29 29 28 28 27 26 26 25
31 31 31 30 30 29 29 29 29 29 29 30 31 31 30 30 30 30 30 30 30 30 31 31 31 31 30 29 29 29 28 28 27 28 29 29 29 29 29 28 27 27 27 26
32 33 32 31 31 31 31 31 30 30 30 31 32 32 31 31 31 30 30 31 31 32 31 30 30 30 29 29 29 30 29 29 28 29 30 30 30 30 30 29 29 28 28 28
32 32 32 32 32 33 34 33 33 32 32 32 33 33 32 32 31 31 31 32 33 31 30 30 31 31 29 29 30 31 31 31 31 31 31 31 31 31 31 31 30 29 29 29
33 33 33 34 33 32 33 33 34 34 33 33 33 32 32 32 32 32 32 33 34 31 30 31 31 31 30 30 31 31 31 31 31 32 32 32 31 32 32 31 31 30 30 28
33 33 34 33 33 32 32 33 33 33 32 32 32 32 32 32 31 32 33 33 32 31 31 31 31 31 31 31 32 33 33 33 33 32 32 32 31 31 31 32 32 32 31 29
33 33 33 32 33 33 33 33 33 33 32 31 31 31 31 31 31 31 31 32 32 31 31 31 31 31 31 32 33 34 34 33 33 33 33 32 31 30 31 31 31 31 31 30
31 32 32 33 33 32 32 33 33 33 33 32 32 32 33 34 34 32 31 31 31 32 31 31 32 32 32 32 33 33 32 32 32 32 33 32 32 31 31 31 31 31 31 30
32 32 33 33 33 33 32 33 33 33 33 33 32 32 33 33 33 33 33 32 32 32 32 33 33 33 34 33 33 31 31 31 31 32 32 31 30 31 31 31 30 30 30 29
32 32 33 33 33 33 32 32 33 32 31 31 32 32 33 33 33 33 33 33 33 32 33 33 33 32 32 32 31 30 30 30 31 31 31 31 30 30 30 29 29 29 28 27
31 32 33 33 32 32 33 33 32 32 32 32 32 33 32 32 32 33 33 33 32 32 32 31 31 31 31 31 30 30 29 30 30 30 29 29 29 29 29 29 28 27 27 27
30 31 31 31 31 31 30 31 31 31 31 31 31 31 31 31 31 32 31 31 31 31 31 31 31 30 30 30 30 29 29 29 29 29 29 29 29 29 29 28 27 27 27 27
28 29 29 29 30 31 31 31 30 30 30 31 31 31 31 31 31 31 32 31 30 30 30 30 30 30 29 29 29 29 28 28 28 28 28 28 28 27 27 27 27 27 27 26
28 27 27 28 29 29 29 31 31 30 30 30 30 30 30 31 31 31 31 30 29 29 29 29 29 29 29 28 28 28 27 27 27 27 27 27 27 27 27 26 26 26 26 26
24 25 25 27 27 28 28 27 26 27 28 29 30 30 29 30 30 29 29 29 29 29 29 28 28 27 26 27 27 27 26 26 26 27 27 27 26 26 26 27 26 26 26 26
24 25 25 25 26 26 26 26 26 26 26 27 28 28 29 29 29 29 28 27 27 26 26 27 27 26 25 25 26 25 25 25 25 25 25 26 26 26 25 25 25 25 25 25
23 24 25 24 25 25 25 25 25 25 25 26 27 27 27 28 28 27 26 26 26 25 25 25 25 25 25 25 25 25 25 25 25 24 25 24 24 24 24 24 24 24 24 24
22 23 23 23 23 23 23 23 24 24 24 24 24 25 25 26 26 26 26 26 25 25 25 25 24 24 24 24 24 25 25 24 23 23 23 22 23 23 24 23 23 24 24 24
19 20 21 21 21 21 20 20 21 22 22 23 23 24 25 25 25 24 24 24 24 24 23 23 23 23 23 23 23 23 23 22 22 22 22 22 23 23 23 23 24 24 25 25
17 17 18 18 18 19 19 18 18 19 21 21 22 23 23 22 22 23 23 22 22 22 22 22 22 21 21 21 21 21 20 20 20 21 22 22 22 23 23 24 23 23 23 23
16 16 16 16 17 18 18 18 19 19 19 19 20 21 21 21 21 21 21 21 21 21 21 21 21 21 21 20 20 20 20 20 20 20 21 22 22 22 22 23 23 23 23 23
Wind_Direction
243 241 241 240 242 246 250 253 257 259 261 263 263 260 264 269 270 270 274 276 278 281 281 282 286 288 286 286 284 285 285 286 288 292 293 294 297 298 299 300 300 298 297 294
247 245 244 245 242 244 251 256 258 260 261 261 263 265 269 272 270 269 273 274 275 278 279 281 283 284 284 284 282 282 282 283 286 290 292 295 296 296 297 298 299 299 299 297
247 245 244 244 244 243 248 253 256 261 263 263 266 272 276 275 271 270 273 275 277 278 278 282 281 282 283 280 282 283 284 285 286 288 290 291 293 293 294 295 296 298 298 298
248 246 245 247 246 246 247 251 254 258 263 265 264 267 270 273 273 271 273 276 278 280 282 282 281 280 281 281 283 283 283 284 284 286 287 288 289 291 291 292 293 295 295 296
247 247 247 247 248 249 250 254 256 258 261 264 266 268 270 273 274 273 274 277 279 281 283 285 284 283 283 281 280 281 282 282 284 285 286 286 286 288 289 290 291 290 292 294
247 250 249 250 249 251 254 258 260 260 263 265 267 269 272 275 276 276 276 278 280 281 282 283 283 285 284 282 280 280 280 280 282 283 285 287 287 287 287 289 289 292 291 292
249 251 252 253 252 253 256 261 263 263 265 266 267 271 272 274 278 278 278 278 280 280 282 281 282 282 281 280 279 279 279 280 282 282 284 286 286 287 286 286 287 289 290 290
250 252 254 256 255 255 259 261 261 263 264 267 270 272 273 275 277 280 279 277 279 280 280 280 281 281 281 279 278 277 278 279 279 281 284 285 285 286 285 284 285 287 287 288
252 256 258 256 256 259 262 262 263 266 267 268 271 273 274 275 276 278 276 276 278 279 278 280 281 281 281 281 280 278 277 278 280 282 283 284 284 284 285 285 286 286 287 287
255 257 258 260 260 261 262 263 266 269 271 272 273 273 274 276 277 276 275 275 278 277 276 276 278 280 278 280 280 278 276 276 279 281 283 284 284 284 285 286 285 284 287 286
256 259 261 262 262 263 264 265 267 271 273 273 274 276 276 278 276 275 274 275 276 276 276 278 278 279 279 280 279 278 277 278 279 280 282 283 284 284 283 283 284 286 289 286
256 258 260 263 263 264 266 268 269 271 272 273 274 276 276 276 276 276 276 276 277 278 278 278 278 279 279 279 279 279 279 278 278 280 282 283 284 283 284 285 284 285 287 286
257 258 260 264 265 264 266 269 271 270 271 273 275 276 277 277 278 280 278 277 280 280 280 280 280 280 280 279 279 279 280 278 278 280 282 282 283 283 284 285 286 286 286 286
257 258 260 264 264 265 267 270 271 271 271 273 274 276 278 280 281 281 281 281 282 282 281 281 281 281 282 281 279 278 278 277 278 280 281 282 283 283 284 285 286 285 286 286
256 259 262 264 266 266 268 270 270 270 272 273 274 275 276 278 279 280 280 281 282 282 282 282 282 282 281 281 281 278 278 278 280 281 281 282 283 283 284 285 285 284 285 286
256 260 263 265 267 268 270 271 270 270 271 273 275 275 276 277 279 280 280 280 281 282 281 281 281 281 280 280 280 278 278 279 280 280 281 281 282 283 283 284 284 284 284 284
259 262 265 268 270 270 270 271 271 271 273 275 276 277 277 276 278 280 280 280 281 282 281 281 281 280 279 279 279 279 279 280 280 280 280 281 282 283 283 284 283 282 283 284
262 265 265 269 270 271 271 271 272 274 276 277 278 279 279 280 279 279 279 280 281 280 280 280 279 278 278 277 277 279 279 280 280 280 279 280 281 282 283 281 281 282 285 285
263 266 268 269 270 271 271 273 274 275 275 277 278 278 279 281 282 281 281 280 280 278 278 278 278 278 277 277 277 278 278 278 279 279 280 281 280 281 281 281 281 283 284 285
265 267 268 270 271 273 275 276 276 276 276 276 277 279 280 280 281 281 281 280 279 278 277 278 279 280 278 276 276 277 278 277 278 279 280 280 281 282 283 283 283 283 283 283
265 267 269 271 272 275 275 275 274 274 274 275 277 279 279 279 280 280 281 280 279 279 278 278 279 280 280 279 277 277 277 276 277 279 280 281 281 282 283 283 284 284 284 283
266 267 270 272 274 275 275 275 275 275 275 275 276 277 278 279 279 278 279 280 280 279 279 279 279 278 278 278 279 279 278 277 278 280 281 281 283 284 284 284 284 284 284 285
268 270 271 273 274 274 276 276 276 277 278 278 278 280 281 281 280 279 278 278 278 279 280 280 278 276 276 278 280 279 277 277 278 280 282 283 283 283 284 284 285 286 287 288
270 272 274 275 275 275 277 277 276 278 280 281 281 281 281 281 280 279 278 277 277 278 278 278 277 277 277 277 278 278 277 276 277 279 281 283 283 283 283 283 284 285 285 288
273 275 276 277 277 278 279 280 281 279 279 281 283 283 283 282 280 278 277 277 277 277 277 277 278 279 280 280 279 278 278 278 278 279 280 282 284 284 284 285 286 286 285 286
274 277 279 281 280 281 283 287 290 287 285 286 285 285 285 282 280 278 278 278 278 277 276 277 277 278 279 280 281 280 280 282 283 282 282 282 283 284 284 284 287 288 287 288
275 279 282 283 283 284 287 290 292 291 290 289 287 288 286 284 282 281 280 279 278 277 277 278 277 277 277 277 278 280 281 282 284 285 284 285 286 285 286 287 289 290 290 289
Height
5867 5869 5869 5870 5871 5872 5873 5873 5874 5875 5875 5876 5877 5876 5877 5876 5877 5877 5878 5878 5878 5878 5877 5876 5875 5874 5873 5873 5871 5870 5869 5868 5866 5864 5862 5861 5859 5857 5855 5853 5851 5849 5847 5845
5862 5863 5864 5864 5866 5867 5867 5868 5869 5870 5871 5871 5872 5871 5871 5871 5871 5872 5873 5873 5873 5873 5872 5871 5870 5869 5868 5867 5866 5865 5863 5862 5860 5858 5857 5855 5854 5852 5850 5847 5845 5843 5840 5838
5855 5857 5858 5859 5860 5861 5862 5863 5864 5864 5866 5866 5866 5865 5865 5865 5866 5866 5867 5867 5867 5866 5866 5865 5864 5863 5861 5860 5859 5858 5857 5856 5854 5852 5851 5849 5847 5845 5843 5841 5839 5837 5834 5832
5849 5851 5852 5855 5855 5855 5856 5858 5858 5859 5860 5860 5860 5860 5860 5860 5860 5860 5860 5861 5861 5860 5859 5858 5857 5856 5854 5854 5853 5852 5850 5849 5847 5846 5844 5842 5840 5838 5836 5834 5832 5830 5828 5826
5842 5844 5845 5847 5848 5849 5850 5851 5853 5853 5854 5854 5853 5854 5854 5854 5854 5854 5854 5854 5854 5853 5852 5851 5850 5849 5847 5846 5845 5844 5843 5841 5840 5838 5837 5834 5831 5830 5829 5827 5825 5823 5821 5819
5836 5837 5838 5842 5843 5843 5844 5844 5846 5846 5847 5848 5848 5848 5848 5848 5847 5847 5847 5847 5846 5846 5845 5844 5843 5841 5839 5838 5837 5836 5835 5833 5832 5831 5829 5827 5825 5823 5821 5819 5817 5816 5814 5812
5829 5830 5831 5834 5835 5837 5839 5839 5840 5839 5839 5840 5840 5840 5840 5839 5839 5839 5838 5838 5838 5837 5835 5835 5834 5833 5832 5831 5829 5828 5825 5825 5824 5823 5821 5819 5817 5815 5813 5811 5810 5808 5806 5805
5822 5823 5826 5827 5828 5830 5831 5831 5831 5831 5832 5832 5832 5831 5831 5831 5831 5831 5830 5830 5829 5828 5827 5826 5825 5824 5823 5822 5821 5819 5818 5817 5816 5814 5812 5810 5808 5807 5804 5802 5801 5800 5798 5796
5816 5817 5817 5818 5820 5821 5821 5822 5823 5823 5823 5824 5823 5823 5823 5823 5823 5822 5822 5821 5820 5819 5818 5817 5816 5815 5814 5813 5812 5811 5809 5808 5806 5805 5804 5801 5800 5798 5795 5793 5792 5791 5790 5788
5807 5808 5809 5811 5812 5812 5813 5813 5814 5815 5815 5815 5815 5814 5814 5814 5814 5813 5812 5812 5811 5810 5809 5809 5807 5806 5805 5804 5803 5802 5801 5799 5797 5796 5794 5793 5791 5789 5787 5785 5783 5782 5781 5779
5798 5800 5801 5802 5803 5804 5804 5805 5806 5806 5806 5806 5806 5806 5805 5805 5804 5803 5803 5802 5801 5800 5800 5800 5799 5797 5796 5795 5794 5792 5791 5790 5788 5787 5785 5783 5781 5779 5778 5776 5775 5773 5771 5770
5790 5792 5793 5794 5795 5795 5796 5796 5797 5797 5797 5797 5796 5796 5796 5795 5795 5795 5794 5793 5792 5791 5790 5790 5789 5787 5786 5785 5784 5783 5782 5780 5779 5777 5775 5774 5772 5770 5768 5767 5765 5764 5762 5760
5782 5783 5784 5785 5785 5786 5787 5787 5787 5788 5788 5787 5787 5787 5786 5786 5786 5786 5785 5784 5782 5782 5781 5780 5779 5778 5776 5775 5774 5773 5771 5770 5768 5767 5765 5764 5762 5760 5759 5758 5756 5754 5753 5751
5774 5775 5776 5776 5776 5777 5777 5777 5777 5778 5778 5778 5779 5778 5778 5777 5777 5776 5775 5774 5773 5772 5770 5770 5769 5768 5767 5765 5764 5762 5761 5759 5758 5757 5755 5754 5752 5751 5750 5748 5747 5745 5743 5742
5766 5767 5767 5768 5768 5768 5768 5768 5768 5769 5769 5769 5769 5769 5769 5768 5767 5766 5765 5763 5763 5762 5760 5759 5759 5758 5756 5754 5753 5750 5749 5749 5748 5747 5745 5744 5742 5741 5740 5738 5737 5736 5734 5733
5758 5758 5758 5759 5759 5759 5759 5759 5759 5759 5759 5759 5759 5759 5758 5758 5757 5756 5754 5754 5752 5752 5751 5750 5749 5747 5746 5744 5742 5741 5740 5739 5738 5737 5736 5734 5733 5731 5730 5729 5728 5726 5725 5723
5749 5750 5750 5750 5750 5750 5750 5749 5749 5749 5749 5749 5749 5749 5748 5747 5747 5746 5745 5744 5743 5742 5741 5740 5738 5737 5736 5735 5733 5732 5731 5729 5728 5727 5726 5725 5724 5722 5721 5720 5719 5717 5716 5714
5740 5741 5741 5741 5742 5741 5740 5740 5739 5740 5740 5739 5739 5738 5738 5737 5737 5736 5734 5734 5733 5732 5731 5730 5729 5727 5726 5725 5724 5723 5721 5720 5719 5718 5717 5716 5715 5713 5712 5711 5710 5708 5706 5705
5732 5732 5732 5732 5732 5732 5731 5731 5731 5731 5730 5730 5729 5729 5728 5728 5727 5726 5725 5724 5723 5722 5721 5720 5719 5718 5717 5715 5714 5713 5712 5711 5710 5709 5708 5707 5706 5704 5703 5702 5700 5699 5698 5696
5724 5724 5723 5723 5723 5723 5723 5723 5722 5721 5721 5720 5720 5719 5718 5717 5716 5715 5714 5714 5713 5712 5711 5710 5709 5708 5707 5706 5705 5704 5703 5702 5701 5700 5699 5698 5697 5695 5694 5693 5691 5690 5689 5688
5715 5715 5715 5715 5715 5715 5714 5713 5713 5712 5711 5710 5710 5709 5708 5707 5706 5705 5704 5704 5703 5702 5701 5701 5700 5699 5698 5697 5696 5695 5694 5694 5693 5692 5691 5689 5688 5687 5685 5684 5683 5682 5680 5679
5708 5708 5708 5707 5706 5706 5706 5705 5704 5703 5702 5701 5701 5700 5699 5698 5697 5696 5695 5694 5693 5692 5692 5691 5691 5690 5689 5688 5688 5687 5686 5685 5684 5683 5682 5681 5680 5678 5677 5676 5675 5673 5672 5670
5700 5700 5700 5699 5699 5698 5697 5696 5695 5694 5693 5692 5691 5690 5689 5688 5687 5686 5686 5685 5684 5683 5683 5682 5682 5681 5680 5680 5679 5679 5678 5677 5676 5675 5674 5673 5672 5670 5669 5668 5667 5665 5664 5663
5692 5692 5691 5691 5690 5689 5689 5687 5686 5685 5684 5683 5682 5681 5680 5679 5678 5677 5676 5676 5675 5674 5674 5673 5673 5672 5672 5671 5671 5670 5670 5669 5668 5667 5667 5665 5664 5663 5662 5660 5659 5658 5656 5655
5685 5684 5684 5683 5683 5682 5681 5680 5678 5677 5676 5675 5674 5673 5671 5670 5669 5668 5667 5667 5666 5666 5665 5665 5664 5664 5663 5663 5663 5663 5662 5661 5661 5660 5659 5658 5657 5656 5654 5653 5652 5650 5649 5647
5679 5678 5677 5676 5676 5675 5674 5673 5671 5670 5669 5667 5666 5665 5663 5661 5660 5659 5659 5658 5658 5657 5657 5657 5656 5656 5656 5656 5656 5656 5655 5655 5654 5653 5652 5651 5650 5648 5647 5645 5644 5642 5641 5640
5673 5672 5672 5671 5671 5670 5668 5667 5665 5663 5662 5660 5659 5657 5655 5653 5652 5651 5650 5650 5650 5649 5649 5649 5649 5649 5649 5649 5649 5648 5648 5647 5647 5646 5645 5644 5642 5641 5640 5638 5637 5635 5633 5632